Location: Fort Wayne
(41.1310°N, 85.1290°W)
Time: 20:21:15
(UTC-04:00)

COSMOS 2406 - Visible Passes

Search period start: 01 October 2014 00:00
Search period end: 11 October 2014 00:00
Orbit: 845 x 864 km, 71.0° (Epoch: 01 October)

Date Brightness Start Highest point End Pass type
(mag) Time Alt. Az. Time Alt. Az. Time Alt. Az.
01 Oct 4.6 04:28:13 33° NNE 04:28:13 33° NNE 04:31:15 10° NNE visible
01 Oct 5.1 06:10:20 13° NW 06:10:52 13° NW 06:13:27 10° NNW visible
02 Oct 4.9 04:17:40 27° NNE 04:17:40 27° NNE 04:20:07 10° NNE visible
02 Oct 5.2 05:59:46 13° NW 05:59:46 13° NW 06:02:15 10° NNW visible
03 Oct 5.2 04:07:04 22° NNE 04:07:04 22° NNE 04:08:59 10° NNE visible
03 Oct 5.2 05:49:10 12° NW 05:49:10 12° NW 05:51:03 10° NNW visible
04 Oct 5.5 03:56:25 18° NNE 03:56:25 18° NNE 03:57:51 10° NNE visible
04 Oct 5.3 05:38:31 12° NW 05:38:31 12° NW 05:39:51 10° NNW visible
05 Oct 5.7 03:45:45 15° NNE 03:45:45 15° NNE 03:46:42 10° NNE visible
05 Oct 5.4 05:27:51 11° NNW 05:27:51 11° NNW 05:28:38 10° NNW visible
06 Oct 5.9 03:35:04 13° NNE 03:35:04 13° NNE 03:35:34 10° NNE visible
06 Oct 5.5 05:17:09 10° NNW 05:17:09 10° NNW 05:17:25 10° NNW visible
07 Oct 6.1 03:24:21 10° NNE 03:24:21 10° NNE 03:24:26 10° NNE visible
